Location: Dackenheim
(49.5215°N, 8.1854°E)
Time: 07:03:29
(UTC+00:00)

ARIANE 6 FM1 Upper Stage - Visible Passes

Search period start: 20 January 2026 00:00
Search period end: 30 January 2026 00:00
Orbit: 522 x 610 km, 62.0° (Epoch: 19 January)

Date Brightness Start Highest point End Pass type
(mag) Time Alt. Az. Time Alt. Az. Time Alt. Az.
20 Jan 5.5 19:12:41 10° SSW 19:12:50 11° SSW 19:12:50 11° SSW visible
21 Jan 4.6 17:36:22 10° SSE 17:37:45 13° SE 17:37:45 13° SE visible
21 Jan 5.1 19:12:49 10° SW 19:13:48 17° SW 19:13:48 17° SW visible
22 Jan 4.1 17:35:29 10° SSE 17:38:25 19° ESE 17:38:38 19° ESE visible
22 Jan 4.7 19:13:02 10° SW 19:14:41 23° WSW 19:14:41 23° WSW visible
23 Jan 3.7 17:35:00 10° S 17:38:27 27° ESE 17:39:24 24° E visible
23 Jan 4.5 19:13:21 10° WSW 19:15:28 27° W 19:15:28 27° W visible
24 Jan 3.2 17:34:42 10° SSW 17:38:29 38° SE 17:40:06 26° E visible
24 Jan 4.5 19:13:44 10° WSW 19:16:08 28° WNW 19:16:08 28° WNW visible
25 Jan 2.8 17:34:35 10° SSW 17:38:33 54° SE 17:40:41 24° ENE visible
25 Jan 4.6 19:14:12 10° W 19:16:44 26° WNW 19:16:44 26° WNW visible
26 Jan 2.5 17:34:36 10° SW 17:38:40 76° SE 17:41:13 21° NE visible
26 Jan 4.7 19:14:43 10° W 19:17:15 23° NW 19:17:15 23° NW visible
27 Jan 2.6 17:34:43 10° SW 17:38:47 78° NW 17:41:39 18° NE visible
27 Jan 4.8 19:15:17 10° WNW 19:17:41 20° NW 19:17:41 20° NW visible
28 Jan 3.0 17:34:57 10° WSW 17:38:56 57° NW 17:42:02 16° NE visible
28 Jan 5.0 19:15:52 10° WNW 19:18:04 18° NNW 19:18:04 18° NNW visible
29 Jan 3.5 17:35:15 10° WSW 17:39:07 43° NW 17:42:22 14° NNE visible
29 Jan 5.1 19:16:28 10° NW 19:18:23 16° NNW 19:18:23 16° NNW visible
